SCATSAT 1

Last updated on Mon Sep 21 2026 00:02:46 GMT+0000 (Coordinated Universal Time)

1 41790U 16059H 26263.49768292 .00000551 00000+0 79126-4 0 9997 2 41790 98.1098 328.2083 0053221 301.4894 58.1122 14.79710443115686
UTC large
Height (km)
Speed (km/s)
/
Latitude / Longitude
Inclination (degrees)
Orbital Period (minutes)
Azimuth
Elevation
Range (km)
Doppler Factor

Next 0 passes for location: London (51.5072 / 0.1276)

No passes found over London.
SCATSAT 1